Wind_Speed
18 18 21 24 24 24 22 21 20 19 18 18 18 17 18 17 16 13 17 20 18 20 17 9 7 8 10 13 11 8 11 17 21 21 22 21 18 14 13 15 14 13 13 16 21 22 20 17 14 14 12 7 5 3 5 6 4 4 6 9 11 10 11 13 13 13 11 9 11 12 7 5 7 10 13 15 16 16 15 16 16 16 16 16 17 17
17 20 22 23 23 22 20 18 19 19 20 21 20 20 21 18 18 11 15 19 17 16 13 12 11 10 12 13 15 14 13 17 23 23 21 21 18 14 14 13 11 13 14 15 19 22 19 17 15 15 13 8 5 5 5 3 3 4 6 9 11 9 10 13 14 13 12 13 15 13 9 9 9 9 11 13 14 13 14 16 16 15 16 16 17 17
17 21 21 20 19 18 17 16 18 19 18 18 18 19 20 17 14 5 13 17 15 13 13 14 9 8 10 11 14 18 17 16 20 22 21 21 20 16 15 14 13 15 17 16 17 20 19 18 18 17 15 11 6 6 7 5 5 6 4 7 9 8 10 13 15 17 17 17 14 11 10 10 8 7 8 10 10 11 13 15 15 14 15 16 16 17
20 18 16 18 17 15 16 17 18 19 19 17 16 19 19 17 14 7 3 8 9 8 13 14 7 8 11 11 14 18 17 17 19 20 20 20 19 16 14 14 14 16 17 16 14 16 18 17 18 18 18 16 10 6 10 9 6 5 5 6 7 7 9 13 16 19 19 16 12 11 12 11 7 6 8 9 8 10 12 13 14 15 15 17 17 16
22 16 11 14 17 16 16 18 19 21 21 17 15 18 18 16 15 11 6 4 5 5 8 11 10 11 12 12 14 17 18 18 19 20 21 20 18 17 16 14 14 15 15 16 14 14 15 16 17 18 18 19 14 9 10 10 7 6 8 7 7 8 10 13 17 19 19 15 12 12 13 11 7 7 9 9 8 10 10 11 13 15 17 18 17 17
22 18 13 12 17 20 19 20 21 20 20 17 12 12 17 17 14 13 13 14 12 8 8 10 8 8 11 10 8 11 16 16 16 19 22 23 21 17 15 16 17 16 16 16 17 15 15 15 15 16 19 20 19 14 13 12 9 9 10 7 7 10 12 13 16 18 19 16 13 13 13 11 9 8 8 9 9 9 9 10 12 15 19 20 19 18
20 19 18 17 17 20 22 22 22 20 20 19 14 8 10 15 15 15 16 16 13 9 9 10 7 6 10 9 9 11 14 15 16 19 19 19 22 18 15 18 17 16 17 17 16 16 15 15 12 14 17 20 21 17 16 17 12 10 11 8 9 12 14 14 14 15 16 15 14 13 13 12 10 9 9 10 10 10 10 11 12 15 19 20 19 18
20 19 20 22 22 22 25 24 21 21 21 19 18 15 10 11 12 13 16 18 20 19 15 13 11 11 13 13 13 13 15 16 16 21 22 19 22 24 20 21 19 15 16 17 15 14 14 14 11 12 15 19 20 18 18 18 13 11 11 10 10 12 14 13 11 12 13 13 13 13 13 12 11 10 10 11 12 13 13 13 14 17 19 19 19 18
18 18 18 21 22 20 21 23 19 15 16 14 14 17 17 14 13 13 16 18 20 19 13 11 11 11 12 16 15 13 15 14 11 13 21 24 22 21 19 20 19 14 14 14 13 13 13 13 12 12 15 19 20 20 20 18 14 13 13 12 11 11 13 12 11 12 12 12 12 13 13 12 11 11 11 11 13 15 15 16 16 18 19 18 18 19
19 15 14 19 21 18 15 15 16 12 12 14 13 15 18 17 17 15 12 11 12 10 6 8 12 9 10 17 17 14 14 14 9 8 4 13 17 15 15 16 15 13 13 12 12 13 14 15 14 16 18 20 21 21 20 21 19 15 13 13 12 12 13 12 12 13 12 12 11 11 12 12 12 12 12 12 14 16 17 17 18 19 19 17 17 18
22 14 13 18 18 18 17 13 14 15 14 15 15 16 16 16 19 17 12 9 9 5 4 7 12 10 8 11 11 7 9 12 13 8 4 6 13 13 12 12 11 12 13 13 14 14 15 17 18 20 23 24 24 23 20 22 22 18 14 14 14 14 15 14 13 14 14 13 11 11 12 12 12 12 12 13 15 16 17 18 19 20 19 19 18 18
23 17 16 21 16 16 20 17 15 16 17 18 15 15 15 13 15 14 12 10 6 4 8 11 13 13 10 4 2 3 6 9 12 12 8 5 8 10 12 11 10 11 13 15 15 16 18 20 22 24 26 28 28 25 21 22 23 21 17 17 17 17 18 17 16 17 17 15 13 13 12 12 12 12 13 14 15 16 17 18 20 21 21 20 19 17
24 21 16 18 16 16 19 18 17 17 19 21 21 18 10 4 6 5 5 5 5 8 13 14 14 14 9 6 7 6 8 10 12 13 13 11 11 12 12 11 11 11 14 19 19 18 18 20 23 25 27 30 29 25 23 22 24 24 21 20 22 22 21 20 18 19 19 16 16 15 13 12 12 14 16 16 16 17 18 18 19 20 20 19 19 17
23 22 19 17 15 17 20 18 18 20 19 18 21 19 10 3 3 2 3 3 6 12 17 18 14 7 6 9 7 5 7 9 12 14 15 15 15 14 12 14 16 16 18 20 21 20 20 21 23 24 27 30 28 24 23 22 23 27 27 26 27 27 24 21 20 22 21 19 18 16 14 14 14 14 17 19 18 18 19 19 20 20 20 19 17 16
17 16 22 22 17 19 22 20 18 17 17 18 19 18 15 11 6 3 4 4 3 6 8 11 9 3 6 8 7 6 6 8 11 13 14 16 18 18 17 17 18 20 19 18 21 24 26 25 24 23 25 26 23 23 23 20 21 25 28 28 29 28 25 22 23 24 21 19 15 13 13 15 16 15 17 19 19 19 20 21 21 21 20 19 18 17
15 16 22 23 19 20 23 23 21 18 16 18 22 21 18 18 16 11 11 9 2 2 1 1 2 4 7 7 6 6 7 8 11 12 14 16 17 19 19 17 19 20 19 19 21 24 24 25 25 23 23 23 19 18 20 17 18 23 26 27 27 29 27 24 24 21 16 14 11 10 12 15 18 17 18 19 19 20 21 22 22 21 20 20 18 17
13 14 18 21 20 20 21 19 19 21 19 17 23 28 22 18 19 16 15 16 8 1 1 3 5 8 8 7 5 6 8 9 11 12 14 15 17 18 17 17 18 19 19 20 21 21 20 20 21 21 22 24 19 13 14 17 19 22 24 26 28 30 30 26 21 16 12 11 10 9 11 13 17 19 20 20 20 20 21 22 22 21 20 19 18 16
13 13 12 18 19 18 20 15 11 19 23 19 19 24 22 17 18 17 9 7 4 2 2 8 10 10 6 5 5 6 9 8 9 9 10 12 13 13 12 12 14 15 15 15 16 17 17 16 18 17 18 20 20 15 11 14 19 23 24 27 28 26 25 23 17 15 13 11 10 9 10 12 17 21 22 22 22 21 21 21 22 21 20 19 18 16
15 13 9 15 18 15 19 18 13 16 22 23 20 17 15 12 14 18 11 1 2 2 1 6 11 8 5 8 6 3 7 6 7 7 7 8 8 8 7 8 10 11 10 11 12 14 14 12 12 13 12 12 13 13 13 17 15 16 22 22 18 14 14 16 14 13 12 10 9 10 10 12 17 20 22 23 23 20 20 21 22 23 21 19 18 16
16 12 6 12 18 14 17 22 21 19 18 20 22 21 17 11 9 13 13 8 4 2 1 3 6 5 6 9 8 6 8 5 5 7 6 7 7 7 6 7 8 9 7 7 8 9 9 8 7 7 9 9 11 12 15 22 18 3 11 9 3 2 7 9 7 7 8 7 9 11 10 12 16 19 20 20 21 19 18 21 23 24 22 21 19 17
19 14 9 10 17 16 16 21 22 20 18 18 21 22 19 14 10 7 9 11 6 2 3 3 2 3 8 7 6 8 7 5 5 7 8 9 9 7 7 7 6 4 3 5 6 6 5 6 6 6 6 5 8 10 11 17 19 9 2 5 6 4 3 3 2 3 4 4 6 9 11 13 16 19 19 17 17 19 19 21 24 25 23 22 20 17
22 18 14 13 17 16 12 15 20 19 18 18 19 21 20 16 13 7 5 9 9 3 2 4 2 5 9 8 6 6 7 7 8 9 9 11 11 8 8 7 3 1 1 3 5 4 4 4 4 4 5 4 4 6 8 10 12 9 3 1 3 2 1 1 1 4 5 3 2 6 10 13 17 19 20 18 18 21 21 23 26 25 24 23 20 18
22 20 19 17 20 19 12 9 17 17 17 18 17 19 22 21 18 10 5 6 10 5 2 5 3 4 9 9 5 4 7 8 10 11 12 13 12 10 9 7 2 0 2 2 2 2 2 3 3 3 3 2 3 3 5 6 5 4 4 4 2 1 2 2 4 7 7 6 4 5 8 13 18 19 20 20 20 22 23 24 27 26 24 23 21 18
16 14 17 16 17 20 16 11 13 14 17 16 13 13 18 23 25 21 17 13 12 10 6 5 3 5 10 9 7 7 7 9 11 12 13 14 13 12 12 10 6 4 4 4 4 3 3 3 4 3 3 3 1 4 3 3 4 3 2 3 4 3 4 5 6 8 8 8 8 7 7 12 17 20 21 22 22 23 23 24 26 26 25 23 21 19
9 5 10 11 7 9 13 12 9 9 11 5 6 6 4 11 20 20 18 14 10 11 13 8 4 7 11 9 7 8 8 9 11 12 14 15 13 13 14 13 11 8 6 7 7 5 5 6 7 7 6 5 2 3 4 2 3 3 2 2 4 5 7 7 6 6 7 10 11 10 9 11 15 20 22 23 25 25 24 24 26 27 25 24 22 19
5 1 4 6 4 2 3 3 5 6 2 4 9 8 9 4 7 9 6 6 4 4 9 8 8 12 13 10 8 8 10 12 13 14 15 15 15 15 15 13 12 10 7 8 8 7 8 9 10 10 9 8 5 3 4 4 3 3 3 3 4 6 8 5 4 5 9 12 14 13 12 13 15 18 22 25 26 25 25 25 27 28 26 24 23 20
7 3 3 3 5 4 3 3 3 6 7 9 10 10 13 11 3 2 4 5 5 6 8 7 10 16 15 11 10 10 11 13 15 16 16 16 17 17 14 9 9 8 5 6 7 6 6 8 8 8 8 9 8 7 6 7 6 5 5 5 5 7 6 2 5 8 11 13 17 17 15 15 17 19 22 24 24 25 25 25 27 28 27 25 24 21
9 5 5 4 5 4 2 2 1 2 5 8 10 13 14 12 9 4 3 5 5 5 6 6 11 16 14 10 11 11 9 8 10 16 17 16 15 12 7 5 5 5 4 4 4 4 4 4 4 5 5 5 5 5 6 7 8 7 6 6 6 7 6 3 6 11 11 13 19 21 19 19 20 22 24 24 23 25 26 25 26 28 27 26 24 23
10 5 4 8 7 4 3 2 3 4 1 3 7 12 12 9 8 5 6 8 5 4 6 10 12 12 11 10 12 12 10 7 7 12 13 11 9 6 4 5 5 4 4 5 6 5 4 3 2 3 2 2 1 1 2 4 6 7 6 6 8 8 7 6 7 9 11 14 20 24 24 22 23 24 25 25 25 25 26 24 24 26 27 26 24 23
13 7 3 6 6 4 5 5 6 7 6 6 8 7 9 6 4 5 7 8 8 8 9 11 13 14 13 11 12 13 12 8 7 8 9 7 7 4 3 4 4 4 4 4 5 5 4 4 3 2 1 1 1 1 3 4 5 6 6 6 7 7 6 6 7 9 13 18 22 26 26 24 23 24 24 26 27 27 26 25 23 23 25 25 24 23
14 9 3 5 5 2 5 7 6 6 7 7 9 8 2 4 5 8 11 11 10 11 12 11 14 18 18 15 14 13 12 9 8 8 7 6 6 3 2 3 4 4 4 4 4 4 4 3 2 2 1 1 2 2 3 4 4 5 6 6 4 4 4 3 3 4 11 17 19 22 24 24 25 25 24 25 27 26 26 25 23 22 23 24 24 23
9 8 5 5 3 1 2 3 2 5 7 6 5 6 4 2 4 8 12 13 11 14 15 15 16 19 18 18 17 15 14 11 8 8 8 6 6 5 3 4 4 4 5 6 5 4 3 2 2 2 1 1 2 3 3 4 4 5 6 6 5 4 3 1 1 1 5 9 12 17 21 24 24 25 24 25 24 24 24 24 23 21 21 20 20 21
6 6 5 4 2 3 4 3 2 4 4 2 2 3 3 6 7 8 10 12 13 16 18 17 18 18 18 17 17 16 14 11 8 9 9 7 6 5 3 6 7 7 6 6 5 5 4 3 3 3 2 1 2 3 4 4 4 4 4 4 4 4 4 3 3 2 1 1 6 11 17 21 23 23 25 25 24 24 25 24 22 21 19 18 17 17
7 7 6 6 6 6 5 4 3 3 3 3 4 5 6 8 7 7 8 10 12 14 14 15 16 17 18 17 16 15 13 11 8 9 9 7 7 6 5 7 8 7 6 5 5 5 5 4 4 3 2 1 2 2 3 4 4 5 5 4 3 3 3 3 3 4 2 1 4 7 12 17 20 21 23 25 25 25 25 24 24 22 20 19 18 18
6 7 7 8 8 8 8 7 4 2 5 7 7 7 8 8 6 6 7 9 12 12 12 14 15 16 15 15 15 13 11 10 9 10 10 7 8 8 6 7 7 6 6 6 4 5 6 6 5 3 1 0 2 2 3 3 4 5 5 5 4 3 2 3 2 3 4 5 5 7 10 14 17 19 21 24 27 27 23 22 23 23 22 22 22 22
6 7 9 10 8 8 8 7 4 6 9 9 8 9 10 10 10 9 7 8 10 13 15 16 16 16 14 11 11 11 10 10 10 11 9 7 9 11 9 10 10 8 8 8 5 5 5 6 5 3 1 1 2 3 4 4 4 3 4 5 5 5 4 3 2 1 4 6 8 9 10 12 16 20 21 23 25 26 24 23 22 22 23 26 27 27
7 8 10 11 10 9 9 10 10 11 10 7 9 12 12 12 12 12 11 9 10 13 16 17 17 17 14 11 9 9 10 9 10 9 7 7 11 14 13 13 12 11 11 8 6 8 7 4 3 3 3 1 1 3 5 6 6 5 4 4 3 3 3 3 3 2 3 5 7 9 10 11 14 18 20 20 20 22 24 23 21 22 25 26 25 24
11 10 12 12 12 11 13 14 9 6 6 8 12 14 13 13 12 12 13 12 11 14 16 16 17 17 15 11 8 10 12 12 11 10 8 9 13 14 14 13 14 14 14 10 8 11 10 6 3 4 4 3 0 3 5 6 7 6 5 3 2 1 2 3 4 4 5 6 6 5 5 6 7 10 14 15 16 17 19 19 20 21 22 19 16 14
15 14 14 13 13 13 13 11 5 3 7 12 15 14 14 16 14 11 11 10 12 14 14 15 15 15 14 13 11 13 15 15 13 12 10 10 14 15 14 15 16 15 14 12 13 15 13 10 6 4 4 4 3 3 6 7 7 7 5 3 2 2 2 4 4 5 6 7 6 5 3 3 4 4 6 9 11 12 13 14 16 17 15 12 10 9
12 11 11 10 11 13 13 10 5 4 8 13 14 13 14 17 17 11 7 8 11 13 13 14 14 12 12 13 13 15 16 15 15 14 10 10 13 16 16 16 15 14 13 14 16 17 15 13 11 8 7 6 5 4 4 5 6 6 5 2 2 2 1 4 5 5 6 6 7 7 7 6 5 4 3 5 8 8 8 8 10 11 10 9 9 10
8 7 7 8 10 12 13 10 7 6 10 14 13 12 14 17 15 9 6 8 10 10 11 12 12 10 10 10 11 13 14 15 16 14 9 8 12 14 16 16 16 15 14 15 15 16 16 15 13 11 9 6 6 5 3 3 4 4 2 1 1 2 1 3 6 6 6 5 6 7 8 7 7 6 5 6 7 8 9 8 8 8 8 7 9 11
8 7 6 8 10 11 12 12 9 6 9 13 13 14 16 15 12 10 10 9 8 8 10 10 9 8 9 10 12 13 14 13 14 12 8 8 11 12 13 15 16 17 17 17 17 16 14 13 12 10 9 7 7 6 4 4 6 6 4 2 3 3 2 3 5 7 7 7 6 6 7 7 7 7 6 6 7 8 9 9 9 9 9 8 9 10
8 8 8 10 10 10 10 10 7 4 9 14 14 14 15 13 12 13 11 8 6 7 8 8 9 8 9 10 12 13 12 11 10 10 9 9 10 9 9 11 13 14 15 15 16 15 14 13 13 12 12 12 11 10 8 7 7 7 7 7 7 7 5 5 6 7 8 8 7 6 7 7 6 6 6 5 5 6 6 7 8 9 10 10 10 10
8 8 10 11 10 9 8 7 6 6 11 13 13 13 12 11 11 10 8 6 7 8 8 7 7 7 7 8 8 9 9 8 7 8 9 8 8 8 9 10 11 11 10 9 10 11 12 13 13 13 14 15 14 13 11 9 8 7 7 8 8 8 7 7 7 7 8 7 6 5 6 6 5 5 5 5 6 5 5 5 7 8 9 10 10 10
6 7 7 7 7 10 11 12 12 12 11 10 10 11 10 9 8 7 6 7 9 11 11 9 7 7 9 8 7 8 9 9 8 9 8 7 7 7 8 9 9 9 8 7 7 7 7 8 9 10 12 14 15 15 14 12 10 9 9 8 7 6 6 6 6 6 6 6 6 6 6 6 6 5 5 6 7 6 6 6 8 8 9 10 10 9
6 6 6 7 10 13 15 17 16 14 13 12 12 12 10 9 8 7 7 9 12 14 14 11 8 9 11 10 9 10 11 10 10 9 8 7 6 6 6 6 6 6 6 5 5 5 4 4 5 6 7 10 11 12 13 13 12 11 10 9 9 8 8 8 7 6 5 6 7 8 9 10 10 9 8 8 8 8 8 8 8 9 9 10 10 9
7 5 6 11 15 15 16 18 16 15 16 15 13 12 10 8 9 9 9 11 13 13 14 13 11 11 13 12 10 9 10 10 8 7 7 7 6 5 5 5 4 4 4 4 4 3 3 3 3 3 4 5 6 7 8 10 11 11 10 9 9 9 8 8 8 7 6 6 7 8 9 10 10 10 10 10 9 8 8 8 8 8 9 9 9 9
9 6 7 13 17 17 18 18 16 16 17 16 13 12 9 8 10 10 9 10 11 11 11 12 12 13 13 12 10 8 7 8 7 6 6 6 5 5 4 4 4 3 4 4 4 3 2 2 1 2 3 3 3 4 5 6 7 7 7 7 7 7 7 6 6 6 5 6 6 6 6 7 7 7 8 8 8 7 7 7 7 7 7 7 8 8
9 10 11 15 18 20 20 18 16 17 18 16 13 11 9 8 9 9 9 10 10 9 9 10 11 12 11 10 8 6 5 5 5 5 4 4 3 2 2 2 2 2 3 4 4 4 3 3 3 3 3 3 4 4 5 5 5 6 6 5 5 4 4 4 4 4 4 4 4 5 5 5 5 5 6 6 6 7 7 7 7 8 8 9 10 10
9 13 15 16 19 21 19 16 16 17 18 17 14 13 12 10 8 8 9 9 9 9 10 9 9 9 8 6 5 3 2 2 2 3 3 3 1 1 1 2 2 2 3 3 3 3 4 4 4 3 3 4 4 4 5 5 5 5 6 6 5 4 4 3 3 4 4 4 5 5 5 5 5 6 6 7 7 8 8 9 9 10 10 11 12 13
8 11 13 15 19 20 17 14 14 15 17 18 17 16 15 12 10 10 10 10 10 10 10 10 9 9 8 7 6 5 4 3 3 3 3 3 1 1 1 1 2 2 2 3 3 3 4 3 3 3 4 4 3 3 4 4 5 5 5 5 5 5 4 4 4 4 5 5 5 5 5 5 6 7 7 8 9 9 10 10 11 11 12 13 14 15
Wind_Direction
202 206 207 211 208 206 208 203 210 221 230 247 252 264 286 280 283 277 216 197 189 193 196 195 211 226 235 246 242 241 247 236 232 238 247 254 255 255 261 270 274 268 258 253 244 237 239 244 250 257 265 285 309 316 295 293 293 252 219 215 222 222 222 230 236 239 242 247 262 280 302 318 296 273 257 246 234 231 231 227 226 224 219 214 215 215
200 212 213 213 212 210 211 208 215 225 235 251 262 280 288 279 292 281 194 180 181 190 197 195 206 224 233 240 234 239 256 237 226 236 248 248 247 252 258 259 262 266 268 265 247 238 245 253 252 257 263 279 303 310 302 278 265 243 199 208 226 231 236 241 247 247 246 257 271 286 302 309 304 292 274 252 234 228 222 219 218 215 215 214 210 206
208 218 219 214 212 212 211 210 226 236 242 254 261 278 280 270 292 278 175 182 193 204 213 206 213 244 253 254 237 240 259 258 238 240 255 256 244 240 250 253 257 271 275 271 255 245 250 252 252 261 264 266 273 285 277 238 245 265 202 193 212 218 233 247 253 253 254 257 261 271 278 280 286 282 267 246 223 215 214 214 214 214 214 209 200 196
216 224 222 213 204 207 216 217 230 241 246 256 260 269 270 263 280 298 182 190 199 213 213 210 228 254 258 262 248 243 256 269 262 258 260 251 245 251 257 251 253 270 273 267 256 249 255 255 258 265 264 264 258 256 263 236 213 250 237 206 209 211 223 239 247 253 259 259 257 265 270 274 277 253 240 235 216 206 208 208 208 208 203 196 191 189
223 237 232 215 202 202 220 226 234 243 245 249 253 253 251 257 271 283 296 268 236 238 228 235 250 254 264 273 262 246 241 254 262 264 256 242 252 267 260 256 265 271 268 261 258 261 267 263 262 263 260 262 254 241 258 241 187 206 235 223 218 223 229 239 248 257 264 268 269 270 272 277 273 247 234 228 210 198 198 194 194 195 191 188 186 183
223 237 241 227 207 199 211 223 229 239 246 244 244 247 241 244 264 271 278 295 293 283 285 279 257 257 280 283 277 255 239 240 242 248 254 255 261 263 260 273 278 265 254 252 256 268 277 271 269 265 257 257 252 239 242 237 207 214 231 222 218 228 237 248 254 258 263 267 267 265 267 268 257 235 224 214 202 197 193 183 181 183 183 182 180 178
223 227 232 233 222 209 210 217 221 228 239 240 235 254 254 242 256 264 265 284 289 280 290 285 262 279 294 286 284 279 259 248 241 240 250 262 258 248 258 277 278 259 241 239 251 266 274 271 274 274 262 254 249 240 231 227 219 222 226 212 215 231 239 248 252 252 258 262 260 258 257 254 242 226 214 205 197 196 190 177 173 174 174 175 173 175
230 228 226 231 233 225 218 219 221 221 227 235 234 237 248 246 246 242 243 257 263 266 275 277 277 287 289 286 285 286 272 263 264 253 243 247 245 239 247 260 272 268 239 238 259 267 268 268 274 276 266 255 246 237 231 226 220 224 226 212 211 230 240 241 243 245 250 255 253 250 245 235 225 217 212 203 191 187 183 174 170 168 167 170 171 176
229 235 231 230 232 225 218 218 218 213 216 232 244 235 230 238 245 245 250 255 257 259 263 271 284 290 287 286 284 282 274 272 294 275 246 241 234 227 236 250 263 258 226 231 256 257 255 261 265 265 261 256 248 240 235 233 231 231 231 225 216 224 236 235 235 244 248 248 244 241 239 226 210 206 207 199 186 180 178 176 172 169 169 172 174 178
225 237 229 225 234 229 214 215 215 214 223 233 244 238 233 243 254 259 261 266 272 265 252 260 265 268 283 289 286 272 259 260 292 340 274 224 211 207 225 241 245 230 213 228 247 247 253 260 261 259 256 255 253 248 240 234 236 236 233 237 232 224 233 237 235 241 244 240 235 232 231 223 208 201 199 194 184 177 176 178 175 173 172 171 174 179
226 239 225 219 237 232 215 217 224 225 228 233 238 239 244 252 253 256 257 270 297 288 260 269 254 250 265 281 291 266 236 248 264 304 349 186 195 207 217 221 223 221 223 235 243 246 255 260 262 261 259 257 256 253 246 236 235 236 232 237 243 236 234 237 237 240 239 231 225 220 217 214 206 199 197 192 184 178 175 175 175 176 176 174 175 180
234 242 228 220 230 228 217 222 233 230 222 224 229 233 242 240 234 252 266 262 275 265 270 274 256 257 260 230 104 133 208 241 249 260 269 219 197 196 184 187 212 236 248 252 256 263 270 271 271 270 268 264 259 253 249 239 232 234 236 234 242 245 238 237 240 238 234 224 217 214 210 205 198 191 192 189 184 180 176 172 174 178 177 175 177 181
239 241 229 218 223 222 216 214 216 225 227 224 220 220 231 217 192 237 274 246 236 249 261 264 254 259 250 166 123 152 203 228 237 238 237 233 228 214 193 196 222 256 271 266 262 262 266 266 264 266 268 265 259 253 250 241 230 231 234 231 236 242 239 237 240 239 233 223 215 209 201 195 189 183 184 184 181 180 177 173 174 175 172 173 179 182
228 238 234 225 223 214 209 206 205 218 227 217 209 210 210 158 139 216 233 225 239 244 244 243 243 239 184 151 132 169 197 210 222 224 222 222 226 226 220 219 235 260 271 269 267 263 262 259 252 251 254 251 244 237 235 235 234 231 228 227 230 235 235 233 236 238 230 221 215 207 194 183 180 181 180 180 179 178 178 175 174 173 172 178 182 181
211 226 228 224 225 214 210 212 207 213 219 207 203 213 216 209 207 214 207 196 203 229 230 224 224 185 160 162 150 177 204 211 218 221 221 223 225 229 232 235 250 265 265 267 276 278 282 283 273 259 254 253 247 239 232 230 236 235 229 227 228 231 231 227 233 236 227 219 216 207 197 179 169 176 179 178 179 178 179 178 177 177 178 182 183 181
224 224 219 219 224 222 220 217 209 213 225 215 205 211 220 218 218 228 246 251 237 74 64 160 122 118 148 161 162 196 222 227 235 238 235 238 241 243 247 255 266 269 263 264 272 277 282 284 279 273 268 265 261 254 247 242 239 235 231 229 230 231 227 223 231 238 229 222 218 207 201 177 161 170 177 179 181 181 181 181 180 181 180 179 178 173
235 236 224 219 222 225 225 218 209 214 223 216 204 206 214 219 219 229 250 257 260 61 191 205 127 126 142 145 156 219 235 232 244 253 253 254 258 260 261 265 267 268 266 268 273 275 275 273 273 276 274 272 280 283 263 252 242 235 232 230 229 228 222 218 228 236 231 226 221 212 201 174 162 172 177 180 184 184 184 184 182 180 176 171 168 162
234 250 233 213 211 211 214 216 217 219 222 226 219 211 210 213 224 235 249 255 237 117 200 204 169 152 153 141 149 233 249 252 258 262 267 266 266 268 266 262 263 264 263 264 270 274 279 282 282 282 279 282 299 307 280 262 251 240 234 230 233 232 218 210 214 221 223 220 214 209 196 180 177 181 182 181 183 185 185 184 180 174 170 167 164 160
235 252 240 212 213 207 205 212 225 228 230 239 242 232 219 207 215 226 231 248 140 155 254 188 162 145 131 131 132 236 252 267 283 280 280 273 267 265 257 251 252 252 254 262 275 283 286 290 291 294 300 303 305 297 294 308 295 240 220 222 237 244 213 201 206 214 217 210 199 198 197 195 196 196 193 184 179 182 184 180 175 171 169 168 166 164
230 244 244 214 218 223 212 208 212 217 227 240 243 247 251 240 225 224 222 212 176 164 221 151 129 121 135 144 153 201 221 234 273 281 279 262 251 249 244 247 251 251 264 281 292 301 299 294 297 310 322 321 315 311 313 325 334 278 192 193 199 197 179 189 209 212 207 194 186 196 211 217 213 212 207 190 176 179 183 178 173 170 170 170 169 166
224 227 238 216 215 232 227 207 207 213 222 237 241 248 254 242 232 241 236 226 212 152 169 149 80 164 172 176 195 215 234 254 262 267 265 249 241 242 245 250 254 261 294 309 306 314 317 311 316 325 329 323 324 338 343 334 334 336 173 122 91 102 153 170 183 170 179 185 188 206 225 228 222 218 216 199 180 180 185 181 175 172 172 173 172 169
223 216 224 223 219 237 244 213 212 219 225 231 236 243 248 243 235 233 235 233 232 241 150 138 161 194 182 194 218 231 255 269 268 265 252 241 239 239 246 254 270 353 334 319 317 319 319 317 322 324 329 348 344 350 14 6 348 340 320 82 84 97 206 271 156 154 162 166 202 237 240 228 220 216 214 206 190 186 189 185 179 177 177 177 175 172
214 209 215 224 227 238 257 232 218 222 226 229 235 238 236 240 245 241 227 217 208 211 85 104 146 183 177 186 197 223 254 258 259 257 245 240 244 244 248 253 254 227 260 277 305 303 294 300 316 318 306 342 33 37 26 18 12 8 342 320 324 284 219 223 202 183 174 167 191 240 238 221 217 216 213 208 196 191 192 188 183 181 181 181 180 177
192 194 201 213 230 239 250 244 223 218 217 226 249 250 232 231 234 238 246 239 209 194 166 119 113 180 182 190 195 210 243 253 250 252 250 250 252 253 258 258 241 230 259 275 269 259 258 262 269 264 252 276 30 100 90 332 312 321 340 307 285 266 228 206 207 205 191 187 203 217 211 207 212 217 216 210 201 195 193 190 188 186 185 186 185 182
172 169 177 185 212 245 252 255 254 234 208 216 335 334 275 227 217 224 235 226 203 199 194 171 134 171 186 196 200 209 234 247 246 247 253 259 262 261 266 266 250 233 241 261 260 259 264 258 255 257 257 263 271 138 151 227 271 262 241 222 216 222 217 202 200 217 208 202 212 216 206 201 208 214 214 209 204 199 193 193 193 190 189 190 189 188
175 137 171 165 139 163 224 255 320 320 288 2 355 351 0 352 197 190 178 160 138 171 181 160 138 157 175 188 203 228 243 246 247 245 245 255 263 264 267 267 253 236 224 240 254 265 270 266 261 262 263 259 245 200 187 203 216 217 223 216 203 223 233 204 170 210 215 210 214 214 207 202 205 210 209 207 206 198 193 198 199 193 192 193 193 193
208 214 211 132 105 120 125 92 19 352 18 22 358 341 350 355 341 174 134 107 83 112 120 115 150 161 165 182 206 227 236 239 240 235 233 243 253 259 263 258 248 240 222 234 257 266 259 258 256 253 254 254 245 230 229 240 249 253 261 261 253 257 257 197 171 211 214 211 212 206 198 197 200 205 206 207 206 198 195 201 201 197 196 196 196 198
216 214 228 196 122 113 119 109 266 300 30 28 7 356 353 349 351 359 156 131 107 128 117 122 164 162 157 186 214 223 236 249 237 226 229 238 245 248 247 233 234 244 230 219 232 233 221 229 242 240 239 242 239 240 247 256 267 276 278 280 280 276 270 246 222 221 215 214 212 200 190 193 198 202 204 205 204 200 199 203 203 200 199 199 200 203
210 185 196 197 181 169 185 211 272 268 302 344 349 11 15 353 354 38 144 166 185 211 159 152 174 171 162 198 226 229 241 266 252 225 223 235 247 244 223 217 220 226 221 202 192 193 202 209 212 217 224 221 206 238 261 266 281 291 293 293 289 286 284 275 252 234 224 220 210 197 189 190 195 199 202 203 203 202 202 205 206 203 203 204 205 207
210 187 170 208 208 219 242 258 280 281 279 277 291 347 37 45 46 90 134 168 198 208 173 166 188 187 179 202 228 232 237 249 252 231 215 225 250 259 252 246 235 223 222 207 193 196 207 210 208 203 209 256 283 294 298 299 306 315 322 314 294 289 290 277 271 261 236 216 205 198 191 187 191 196 199 200 199 199 200 204 207 207 207 208 210 211
212 206 230 246 235 268 283 275 272 265 254 246 255 270 333 80 102 121 132 146 171 185 180 183 192 188 188 201 217 230 236 235 237 230 219 232 247 242 246 259 261 251 237 227 222 227 226 206 208 236 245 285 316 327 326 328 336 346 357 358 335 316 305 285 300 270 215 195 193 197 191 184 188 196 199 198 196 196 199 202 206 210 211 212 213 214
212 210 215 235 245 303 272 267 253 229 225 219 230 249 252 161 140 144 142 148 167 178 180 186 190 192 199 209 217 229 236 237 233 218 210 227 244 245 225 206 215 236 243 247 240 224 221 201 204 249 268 311 335 339 347 351 355 3 16 27 32 29 17 25 81 138 189 179 182 191 188 186 192 196 198 198 196 196 201 204 206 210 213 213 215 217
191 192 193 207 196 141 171 206 229 211 205 205 222 214 159 138 154 160 147 150 167 175 178 184 192 203 213 219 226 234 236 241 238 218 213 213 215 234 223 186 193 206 217 236 232 200 194 206 209 228 256 306 348 342 346 349 347 356 13 28 34 39 47 76 126 148 312 255 200 198 193 192 197 198 197 197 198 200 204 206 204 206 211 213 215 215
177 178 184 191 171 154 170 196 202 187 143 139 181 182 146 139 163 177 162 160 171 180 188 193 200 213 220 224 232 236 235 239 230 214 221 214 192 202 210 193 199 207 196 195 210 201 189 193 208 218 238 304 6 7 360 360 356 355 2 12 17 26 52 74 117 142 138 199 225 228 215 202 201 201 198 198 201 203 204 204 200 201 206 211 213 213
199 188 186 194 179 157 158 164 155 125 134 150 169 172 155 152 172 187 181 181 181 185 201 210 215 224 228 230 238 239 233 230 211 203 218 217 190 188 194 186 182 185 182 175 197 220 189 180 206 227 235 350 29 17 2 9 13 8 7 10 15 21 47 66 88 146 174 196 206 219 226 219 211 207 205 204 205 204 204 206 204 202 205 212 218 220
235 205 190 191 178 161 162 163 151 137 141 153 168 170 164 166 178 186 186 185 182 183 196 212 223 231 235 238 242 237 228 217 205 206 216 211 188 180 186 195 189 184 186 177 184 219 202 183 197 205 218 312 22 11 350 347 357 7 11 14 20 24 31 51 67 128 186 200 196 198 215 221 210 203 203 207 208 205 203 206 208 208 212 217 220 221
225 224 210 200 188 174 149 127 128 139 143 160 173 171 172 175 184 198 200 194 193 193 198 210 224 233 238 240 235 226 219 211 206 214 215 195 191 189 190 204 207 199 196 188 180 192 197 206 220 187 171 170 45 15 351 343 340 340 353 5 23 37 36 49 69 97 148 178 194 203 214 222 216 206 204 209 214 210 204 204 211 219 222 221 221 222
198 215 219 210 201 184 147 125 128 148 161 181 181 176 178 175 179 199 199 191 198 206 209 218 229 237 241 238 224 208 206 204 205 218 217 198 201 203 198 206 214 206 200 194 182 181 182 193 231 218 199 196 259 342 333 331 329 328 330 331 335 23 67 83 91 102 118 133 157 184 203 210 211 209 209 214 218 216 211 210 214 221 229 232 230 222
204 214 218 211 201 188 161 141 136 162 180 189 186 179 178 173 170 179 182 184 200 210 215 224 232 238 237 230 215 203 204 207 209 218 222 207 206 212 212 214 215 208 202 195 187 186 187 190 197 196 207 228 252 302 320 324 322 320 312 297 306 338 78 100 100 107 116 121 132 150 171 168 169 190 213 214 210 209 213 214 212 217 231 241 226 201
216 217 214 203 193 189 175 151 127 143 178 187 183 175 176 173 168 167 170 185 199 206 214 223 229 233 229 223 215 206 206 213 217 220 225 216 213 218 223 223 216 208 204 197 190 189 192 197 199 188 187 218 248 276 320 334 330 323 316 285 267 294 141 132 133 132 134 139 146 159 176 181 179 184 191 193 194 192 194 201 208 217 230 230 210 197
215 198 178 167 173 184 180 158 132 140 167 173 166 162 168 168 165 168 177 179 190 205 216 223 229 227 216 211 211 209 212 219 220 218 221 222 221 223 227 232 229 219 210 203 201 199 192 190 197 196 193 218 250 254 280 312 299 299 324 112 195 278 279 182 177 171 167 172 167 164 170 173 172 176 176 177 181 180 181 187 197 207 215 215 207 204
194 177 157 153 158 167 165 150 129 128 158 163 156 154 162 165 165 176 182 176 183 203 207 207 213 214 208 205 207 211 217 222 218 214 218 227 229 230 232 234 230 221 209 201 204 209 202 196 204 211 218 238 243 223 214 249 258 257 256 231 222 248 272 234 204 190 189 196 192 181 179 176 175 181 184 177 174 179 187 193 196 197 195 193 194 199
153 156 151 151 147 142 142 137 123 134 158 159 158 162 168 174 176 179 180 177 179 185 185 188 194 198 201 201 201 208 218 222 215 206 208 217 220 222 229 232 228 221 210 201 202 208 213 220 227 232 240 246 233 207 195 207 230 245 251 247 235 223 215 212 207 200 200 202 197 186 187 192 194 192 184 173 174 185 191 190 193 198 200 199 201 205
126 137 148 151 145 142 142 132 129 147 150 153 166 173 174 179 179 171 163 160 165 158 145 149 167 175 175 173 176 190 202 204 198 192 192 198 200 197 202 211 219 226 228 223 215 211 211 216 222 230 238 237 222 200 187 191 203 216 226 228 222 213 202 198 201 204 201 199 195 186 182 189 198 196 187 185 192 199 193 175 173 188 204 213 217 218
125 138 155 162 150 146 142 130 128 135 137 145 165 169 167 170 163 144 129 135 140 132 120 116 124 134 134 129 131 146 155 156 160 164 167 171 177 181 187 192 200 213 225 229 227 222 216 210 213 220 223 219 207 189 173 169 175 183 190 193 190 186 183 186 199 212 215 210 203 192 174 165 168 171 173 179 186 190 189 181 177 185 198 207 211 215
124 134 151 159 146 136 128 123 125 130 130 134 147 151 155 158 141 115 108 119 123 123 120 115 115 119 116 111 115 126 132 136 143 145 146 151 158 165 175 181 186 191 197 203 210 217 224 220 216 215 211 210 205 188 167 157 157 160 163 164 162 159 159 162 169 180 195 202 197 185 171 164 163 164 165 168 173 175 177 179 184 191 196 199 205 214
112 118 148 154 145 134 125 123 129 134 132 135 139 137 138 139 125 110 106 110 108 108 111 113 115 114 111 110 115 124 128 130 132 132 132 134 137 144 153 159 164 170 177 184 182 175 180 196 204 205 201 204 209 195 169 154 152 153 153 156 159 161 164 168 169 169 174 184 186 178 168 162 161 161 161 163 167 171 173 176 184 194 200 203 212 222
119 123 146 148 140 133 129 129 135 139 136 135 132 126 122 122 120 115 111 103 92 86 95 107 112 113 113 113 114 117 123 126 128 130 129 126 125 130 140 146 155 166 175 180 181 176 172 176 181 177 164 153 161 174 172 167 161 158 157 159 163 168 173 177 180 182 189 199 205 201 190 181 177 175 175 175 177 179 181 186 197 210 221 229 238 245
131 137 144 144 135 129 129 134 141 144 140 138 135 128 119 113 112 113 107 98 90 84 87 97 109 115 118 121 124 127 132 136 138 133 124 120 124 132 150 172 186 204 210 211 215 219 218 218 216 207 187 171 166 169 178 184 179 171 166 161 157 163 173 178 181 185 192 204 214 219 219 216 214 214 216 216 215 212 209 212 221 231 239 246 252 256
143 141 141 145 137 128 129 137 146 145 141 140 139 131 117 106 104 107 106 104 103 97 91 93 101 104 104 110 121 124 118 120 117 100 96 104 130 181 212 213 213 229 241 247 248 243 242 242 235 225 217 209 201 192 191 196 195 191 188 184 180 178 181 193 204 205 207 215 222 227 230 232 232 233 233 236 238 239 236 236 239 243 246 249 251 254
132 134 139 142 133 125 125 133 142 141 134 131 129 120 111 106 106 110 113 115 113 108 105 109 114 112 112 116 115 105 94 89 82 81 95 112 147 213 229 245 256 257 264 273 267 254 254 259 253 240 233 230 226 217 209 208 211 213 215 217 219 219 221 229 240 243 238 236 238 241 243 245 244 242 239 238 238 241 242 243 244 245 245 246 248 249
Height
3092 3092 3092 3092 3094 3096 3098 3100 3100 3101 3103 3105 3106 3107 3107 3107 3106 3105 3106 3107 3109 3110 3111 3112 3112 3113 3114 3115 3116 3117 3118 3116 3114 3114 3115 3116 3118 3120 3122 3123 3124 3124 3125 3125 3124 3125 3125 3125 3126 3126 3128 3130 3132 3133 3131 3132 3135 3134 3133 3135 3135 3136 3138 3139 3139 3137 3136 3138 3140 3143 3145 3145 3145 3145 3144 3143 3143 3144 3145 3145 3146 3147 3147 3148 3149 3150
3090 3089 3089 3091 3094 3096 3098 3100 3100 3101 3102 3104 3105 3105 3105 3105 3106 3105 3106 3107 3109 3110 3111 3111 3111 3112 3113 3114 3115 3115 3117 3116 3114 3113 3114 3115 3117 3119 3120 3122 3123 3123 3123 3123 3123 3124 3125 3125 3126 3126 3128 3130 3132 3133 3132 3133 3135 3133 3132 3133 3134 3135 3137 3138 3138 3137 3137 3138 3139 3141 3142 3143 3143 3142 3140 3140 3141 3142 3142 3143 3144 3145 3146 3146 3147 3148
3088 3087 3089 3091 3094 3096 3097 3099 3100 3100 3102 3103 3104 3104 3103 3104 3106 3106 3107 3107 3108 3109 3109 3109 3110 3111 3111 3112 3113 3113 3114 3115 3114 3113 3114 3114 3115 3116 3118 3119 3121 3122 3122 3122 3122 3123 3124 3125 3125 3126 3128 3129 3131 3132 3131 3133 3135 3133 3132 3132 3132 3134 3136 3137 3137 3135 3135 3136 3136 3138 3139 3140 3140 3139 3137 3137 3139 3139 3139 3140 3141 3143 3144 3145 3146 3147
3086 3085 3088 3091 3093 3095 3096 3097 3098 3099 3101 3102 3103 3103 3103 3103 3105 3107 3107 3107 3108 3108 3108 3109 3109 3109 3110 3110 3111 3111 3112 3113 3113 3112 3112 3113 3114 3114 3115 3117 3119 3121 3122 3122 3122 3123 3123 3124 3125 3126 3128 3128 3129 3131 3130 3132 3134 3133 3132 3131 3131 3132 3133 3135 3134 3133 3133 3134 3133 3134 3136 3137 3138 3137 3135 3136 3137 3138 3137 3138 3139 3141 3142 3143 3145 3147
3084 3084 3087 3090 3091 3093 3094 3095 3096 3098 3099 3101 3102 3102 3102 3103 3103 3104 3106 3107 3107 3107 3107 3107 3107 3107 3108 3108 3108 3109 3110 3111 3112 3111 3110 3111 3113 3113 3113 3114 3116 3118 3120 3120 3120 3121 3122 3123 3124 3125 3126 3126 3127 3129 3130 3132 3132 3131 3131 3130 3129 3130 3131 3132 3132 3132 3133 3134 3134 3133 3134 3134 3135 3135 3134 3134 3136 3136 3136 3137 3138 3139 3141 3143 3145 3146
3083 3084 3087 3089 3090 3091 3093 3093 3094 3096 3098 3099 3100 3101 3102 3103 3102 3101 3103 3105 3105 3105 3105 3105 3105 3105 3106 3107 3107 3107 3108 3110 3111 3112 3110 3109 3110 3112 3111 3110 3112 3115 3117 3118 3118 3120 3121 3122 3123 3124 3124 3125 3125 3127 3129 3131 3131 3130 3130 3129 3128 3127 3128 3129 3130 3130 3132 3133 3133 3133 3133 3132 3133 3133 3133 3133 3134 3134 3135 3136 3137 3138 3140 3142 3144 3145
3082 3083 3086 3088 3088 3089 3091 3091 3092 3094 3096 3097 3099 3101 3102 3103 3103 3102 3102 3103 3103 3104 3105 3105 3106 3105 3105 3105 3105 3106 3107 3108 3109 3110 3110 3108 3107 3109 3109 3107 3108 3112 3116 3117 3117 3118 3119 3120 3121 3122 3122 3122 3123 3126 3127 3128 3128 3128 3128 3128 3126 3125 3126 3126 3127 3128 3129 3130 3131 3132 3132 3131 3132 3132 3132 3133 3134 3134 3135 3136 3136 3138 3139 3141 3143 3145
3081 3082 3084 3086 3087 3088 3089 3090 3091 3093 3095 3095 3098 3100 3102 3103 3104 3103 3103 3103 3102 3103 3104 3105 3107 3105 3103 3104 3105 3105 3106 3107 3108 3107 3108 3107 3105 3105 3106 3106 3108 3111 3114 3115 3115 3116 3117 3118 3120 3120 3119 3119 3121 3124 3124 3124 3124 3125 3126 3126 3125 3124 3124 3124 3125 3126 3127 3128 3129 3130 3130 3129 3130 3132 3132 3133 3134 3135 3135 3136 3136 3137 3139 3141 3143 3144
3080 3081 3082 3083 3085 3087 3088 3089 3091 3092 3093 3095 3098 3099 3100 3102 3104 3104 3104 3103 3102 3102 3102 3104 3106 3104 3101 3103 3105 3105 3105 3106 3106 3104 3104 3105 3105 3104 3105 3106 3108 3110 3113 3114 3114 3115 3115 3116 3118 3118 3117 3117 3118 3120 3122 3122 3121 3120 3123 3125 3124 3123 3123 3123 3124 3124 3125 3126 3128 3129 3129 3128 3129 3130 3131 3133 3134 3135 3135 3136 3136 3137 3139 3141 3142 3143
3078 3079 3081 3082 3083 3085 3086 3088 3089 3091 3093 3095 3097 3098 3099 3101 3102 3103 3102 3101 3100 3100 3100 3103 3106 3104 3101 3103 3104 3103 3104 3104 3104 3102 3102 3104 3105 3105 3106 3107 3108 3110 3112 3113 3113 3114 3115 3115 3116 3116 3115 3115 3115 3117 3119 3119 3118 3117 3120 3123 3124 3123 3122 3122 3122 3122 3123 3124 3126 3127 3128 3128 3128 3129 3130 3131 3133 3134 3135 3136 3136 3137 3138 3140 3141 3143
3076 3079 3081 3081 3081 3083 3084 3086 3088 3091 3093 3095 3096 3097 3099 3099 3100 3100 3100 3100 3099 3098 3100 3102 3104 3104 3103 3103 3102 3102 3103 3103 3103 3102 3103 3104 3104 3104 3105 3107 3108 3109 3110 3111 3112 3113 3113 3114 3114 3114 3113 3113 3113 3115 3117 3117 3116 3116 3118 3122 3124 3124 3122 3121 3121 3121 3121 3122 3123 3125 3126 3127 3127 3128 3129 3130 3132 3133 3134 3135 3136 3137 3138 3139 3141 3142
3074 3077 3079 3079 3080 3081 3083 3085 3088 3090 3092 3093 3095 3096 3097 3097 3097 3098 3098 3099 3099 3098 3099 3101 3103 3104 3103 3102 3101 3102 3102 3102 3102 3102 3102 3103 3104 3104 3105 3107 3108 3109 3109 3109 3111 3112 3113 3113 3113 3113 3112 3111 3112 3114 3116 3116 3116 3116 3117 3121 3123 3124 3122 3120 3120 3120 3119 3120 3121 3122 3124 3125 3127 3128 3129 3129 3131 3133 3134 3135 3136 3137 3138 3139 3140 3141
3072 3074 3076 3078 3079 3080 3082 3084 3086 3088 3089 3091 3093 3094 3095 3095 3097 3098 3098 3097 3097 3097 3098 3101 3102 3102 3101 3101 3101 3101 3101 3100 3101 3102 3102 3102 3103 3104 3105 3107 3108 3107 3106 3107 3107 3109 3109 3109 3109 3109 3109 3108 3110 3113 3115 3116 3116 3115 3116 3119 3121 3122 3121 3120 3119 3118 3118 3119 3119 3120 3122 3124 3126 3127 3128 3129 3130 3132 3133 3134 3135 3136 3138 3139 3140 3141
3071 3072 3074 3076 3077 3079 3080 3082 3084 3085 3086 3088 3089 3091 3092 3094 3097 3099 3098 3098 3097 3096 3097 3098 3100 3100 3100 3101 3101 3100 3100 3099 3100 3101 3101 3101 3102 3103 3104 3106 3107 3106 3105 3104 3104 3104 3105 3104 3104 3105 3105 3104 3105 3107 3109 3112 3113 3113 3114 3115 3117 3118 3119 3119 3117 3116 3117 3118 3119 3119 3120 3122 3125 3127 3128 3129 3130 3132 3133 3134 3135 3137 3138 3139 3140 3141
3070 3070 3071 3073 3075 3077 3078 3080 3082 3084 3085 3086 3088 3090 3091 3091 3095 3096 3095 3095 3095 3094 3095 3096 3097 3099 3099 3100 3100 3099 3099 3099 3098 3099 3100 3100 3101 3102 3103 3105 3105 3104 3104 3103 3103 3103 3105 3107 3107 3107 3106 3104 3104 3105 3105 3108 3109 3110 3111 3112 3112 3115 3117 3117 3115 3114 3116 3118 3119 3121 3121 3121 3124 3126 3128 3129 3131 3132 3133 3134 3136 3137 3138 3139 3140 3141
3069 3069 3070 3072 3073 3074 3076 3078 3081 3083 3083 3085 3087 3089 3089 3090 3092 3092 3092 3092 3092 3093 3094 3095 3096 3097 3098 3099 3099 3098 3098 3098 3098 3099 3100 3100 3100 3101 3103 3103 3103 3102 3101 3102 3102 3103 3104 3106 3106 3106 3106 3106 3105 3106 3108 3109 3109 3109 3109 3109 3109 3112 3114 3113 3113 3115 3118 3120 3121 3122 3123 3122 3123 3125 3127 3129 3130 3131 3133 3134 3136 3137 3138 3140 3141 3142
3067 3068 3069 3070 3071 3072 3075 3077 3079 3081 3081 3082 3084 3084 3085 3088 3090 3090 3090 3090 3091 3093 3093 3093 3095 3096 3097 3098 3098 3097 3097 3098 3099 3099 3099 3099 3100 3100 3101 3101 3100 3099 3099 3100 3101 3103 3104 3104 3103 3103 3104 3104 3104 3105 3106 3107 3108 3109 3108 3107 3107 3108 3109 3111 3113 3115 3118 3120 3121 3122 3122 3122 3122 3124 3126 3127 3128 3130 3132 3134 3135 3137 3139 3140 3141 3142
3066 3066 3067 3068 3069 3071 3073 3075 3077 3079 3079 3080 3081 3082 3084 3086 3088 3089 3089 3089 3090 3092 3092 3091 3093 3095 3096 3097 3097 3097 3097 3098 3098 3099 3098 3098 3098 3098 3099 3099 3098 3097 3098 3099 3101 3102 3102 3102 3102 3101 3101 3102 3103 3104 3104 3104 3106 3107 3107 3107 3106 3106 3107 3110 3112 3113 3115 3118 3120 3121 3121 3121 3121 3122 3122 3123 3126 3129 3131 3133 3135 3137 3139 3140 3141 3142
3066 3065 3065 3067 3068 3070 3073 3074 3075 3076 3078 3079 3080 3082 3084 3084 3085 3086 3087 3088 3090 3091 3091 3090 3091 3093 3095 3096 3096 3096 3097 3097 3097 3098 3098 3097 3097 3097 3097 3097 3096 3097 3098 3100 3101 3102 3102 3101 3101 3101 3101 3101 3102 3102 3102 3103 3104 3103 3103 3105 3105 3106 3106 3108 3111 3113 3115 3118 3119 3120 3120 3119 3120 3120 3119 3119 3122 3127 3130 3132 3135 3136 3138 3139 3140 3141
3065 3065 3064 3066 3068 3070 3071 3072 3072 3074 3076 3078 3079 3080 3082 3082 3083 3083 3084 3085 3087 3089 3090 3090 3091 3094 3095 3095 3095 3095 3095 3096 3096 3097 3098 3097 3097 3097 3097 3097 3096 3097 3098 3099 3099 3100 3100 3100 3099 3100 3100 3101 3101 3101 3101 3102 3104 3105 3104 3103 3104 3105 3106 3109 3112 3114 3116 3118 3119 3120 3120 3120 3119 3120 3121 3121 3122 3126 3130 3132 3134 3135 3136 3137 3138 3140
3064 3064 3065 3065 3067 3068 3068 3069 3071 3073 3074 3076 3076 3077 3079 3080 3081 3082 3082 3083 3084 3086 3087 3089 3092 3094 3094 3094 3095 3095 3096 3095 3094 3095 3096 3097 3097 3097 3097 3096 3096 3097 3098 3098 3098 3097 3097 3098 3098 3099 3100 3100 3100 3100 3100 3101 3105 3108 3107 3104 3104 3105 3106 3109 3112 3114 3116 3117 3118 3119 3120 3120 3120 3120 3123 3124 3124 3126 3129 3131 3132 3134 3135 3136 3138 3139
3062 3062 3064 3065 3065 3066 3066 3067 3070 3072 3073 3075 3075 3076 3078 3079 3080 3080 3081 3082 3083 3084 3085 3087 3091 3093 3093 3094 3095 3096 3096 3095 3094 3093 3095 3096 3097 3097 3097 3096 3096 3096 3097 3097 3096 3096 3096 3096 3097 3097 3098 3099 3099 3099 3099 3100 3104 3108 3108 3106 3105 3105 3106 3109 3111 3113 3114 3115 3117 3118 3118 3119 3119 3120 3122 3124 3124 3125 3127 3129 3131 3133 3135 3136 3137 3139
3058 3059 3061 3063 3063 3064 3065 3067 3069 3071 3073 3074 3075 3076 3077 3077 3078 3079 3079 3080 3081 3083 3084 3086 3089 3091 3092 3093 3094 3095 3095 3094 3093 3093 3094 3095 3096 3096 3096 3096 3096 3096 3096 3096 3096 3095 3095 3095 3096 3096 3097 3097 3097 3097 3098 3099 3102 3105 3106 3106 3104 3104 3106 3108 3109 3111 3113 3114 3115 3117 3117 3118 3119 3119 3121 3122 3123 3124 3126 3128 3131 3133 3134 3136 3137 3139
3056 3058 3060 3061 3063 3063 3063 3064 3067 3069 3071 3073 3074 3075 3074 3075 3076 3076 3077 3078 3079 3080 3082 3085 3089 3091 3091 3092 3094 3094 3094 3093 3092 3092 3093 3094 3095 3095 3095 3095 3095 3095 3095 3096 3096 3095 3095 3095 3095 3096 3096 3096 3096 3096 3096 3097 3099 3101 3103 3103 3103 3103 3104 3106 3108 3109 3111 3112 3113 3114 3116 3117 3117 3118 3119 3121 3122 3124 3126 3128 3130 3132 3133 3135 3136 3138
3055 3057 3059 3061 3062 3063 3063 3063 3064 3066 3068 3070 3071 3070 3070 3070 3072 3073 3074 3075 3077 3078 3080 3083 3087 3089 3089 3091 3093 3093 3094 3093 3092 3092 3093 3094 3094 3094 3093 3094 3095 3095 3095 3095 3095 3095 3095 3095 3095 3096 3096 3097 3096 3096 3096 3096 3096 3098 3099 3100 3101 3101 3102 3104 3107 3108 3109 3110 3111 3112 3113 3114 3116 3117 3118 3119 3121 3123 3125 3127 3128 3130 3132 3133 3135 3137
3055 3056 3058 3060 3061 3064 3065 3065 3065 3066 3066 3066 3067 3068 3069 3069 3069 3071 3073 3074 3076 3078 3079 3081 3084 3087 3089 3090 3090 3091 3092 3092 3092 3092 3093 3094 3094 3093 3092 3092 3093 3094 3094 3094 3094 3094 3094 3095 3095 3096 3096 3097 3097 3096 3096 3096 3096 3096 3097 3098 3099 3100 3100 3103 3105 3106 3107 3107 3108 3110 3111 3112 3113 3115 3117 3118 3120 3122 3124 3125 3126 3128 3130 3131 3134 3136
3055 3057 3058 3059 3061 3063 3065 3066 3067 3068 3066 3066 3066 3068 3069 3069 3069 3070 3072 3075 3077 3079 3081 3082 3084 3086 3088 3089 3089 3090 3091 3091 3091 3091 3092 3093 3093 3092 3091 3092 3092 3093 3093 3093 3093 3093 3093 3094 3094 3095 3095 3096 3096 3096 3096 3096 3096 3096 3096 3096 3098 3099 3100 3102 3104 3103 3104 3105 3106 3107 3108 3110 3111 3113 3115 3117 3119 3121 3122 3123 3125 3127 3128 3130 3132 3134
3055 3057 3058 3059 3061 3063 3065 3066 3067 3068 3067 3065 3066 3068 3069 3069 3069 3069 3071 3075 3079 3080 3082 3084 3085 3085 3087 3088 3088 3089 3090 3090 3091 3090 3091 3092 3091 3091 3091 3091 3091 3092 3093 3093 3093 3093 3093 3094 3094 3094 3095 3095 3096 3096 3096 3096 3096 3096 3096 3096 3096 3097 3098 3100 3100 3100 3101 3102 3103 3104 3106 3107 3109 3111 3113 3115 3117 3119 3121 3122 3123 3125 3127 3129 3131 3133
3055 3056 3058 3059 3061 3062 3064 3066 3067 3068 3067 3066 3067 3069 3070 3070 3070 3070 3072 3074 3078 3081 3082 3084 3086 3086 3085 3086 3087 3087 3088 3089 3089 3089 3090 3090 3090 3090 3090 3091 3091 3091 3092 3093 3093 3094 3094 3095 3095 3095 3095 3095 3095 3096 3096 3096 3095 3095 3095 3095 3095 3095 3096 3097 3097 3098 3098 3099 3099 3101 3102 3104 3106 3108 3110 3112 3115 3117 3119 3120 3122 3123 3125 3127 3129 3132
3055 3056 3057 3059 3060 3062 3063 3065 3065 3066 3067 3067 3068 3070 3071 3071 3071 3072 3073 3075 3078 3081 3082 3082 3084 3085 3084 3084 3085 3086 3086 3087 3088 3088 3089 3089 3089 3089 3090 3090 3091 3091 3092 3092 3093 3094 3094 3095 3095 3095 3094 3094 3095 3095 3095 3095 3094 3094 3094 3094 3094 3094 3094 3094 3094 3094 3095 3095 3096 3098 3100 3101 3104 3105 3107 3109 3112 3115 3117 3118 3120 3122 3124 3126 3128 3130
3054 3056 3057 3059 3060 3061 3062 3064 3065 3065 3066 3067 3068 3070 3071 3072 3072 3073 3074 3076 3077 3079 3080 3080 3081 3083 3082 3082 3083 3083 3085 3086 3087 3087 3088 3089 3089 3089 3090 3091 3091 3091 3092 3092 3092 3093 3093 3094 3095 3094 3094 3094 3094 3094 3094 3094 3094 3093 3093 3093 3093 3093 3093 3093 3092 3091 3091 3092 3094 3097 3099 3101 3103 3104 3105 3107 3110 3112 3114 3116 3118 3120 3122 3124 3126 3129
3053 3055 3057 3058 3059 3060 3061 3063 3064 3064 3065 3067 3068 3069 3070 3072 3073 3074 3075 3076 3077 3077 3078 3079 3080 3081 3081 3081 3081 3082 3084 3085 3086 3087 3088 3089 3089 3090 3091 3091 3092 3092 3092 3092 3092 3092 3092 3093 3094 3094 3094 3094 3094 3094 3094 3094 3093 3093 3093 3093 3093 3093 3093 3093 3092 3092 3092 3093 3095 3098 3100 3102 3104 3104 3105 3106 3108 3110 3112 3115 3117 3119 3121 3123 3125 3127
3052 3054 3056 3057 3059 3060 3061 3062 3063 3063 3065 3067 3068 3069 3070 3071 3073 3074 3074 3075 3076 3076 3077 3078 3079 3079 3079 3080 3081 3082 3083 3084 3085 3086 3087 3088 3089 3090 3091 3092 3092 3092 3092 3092 3092 3092 3092 3093 3093 3093 3093 3093 3094 3094 3094 3093 3093 3093 3093 3093 3093 3093 3093 3093 3093 3093 3094 3094 3095 3097 3100 3102 3103 3104 3104 3106 3108 3110 3111 3113 3115 3118 3120 3122 3123 3125
3052 3053 3055 3056 3058 3060 3060 3061 3062 3063 3065 3067 3068 3069 3070 3071 3072 3073 3073 3074 3075 3076 3077 3078 3078 3079 3079 3080 3081 3082 3083 3084 3085 3086 3086 3088 3089 3090 3091 3091 3091 3092 3092 3092 3092 3092 3092 3092 3092 3092 3093 3093 3093 3093 3093 3094 3094 3093 3093 3093 3093 3093 3093 3093 3094 3094 3094 3095 3096 3097 3098 3100 3101 3103 3104 3106 3107 3109 3110 3112 3113 3115 3118 3119 3121 3122
3052 3053 3054 3055 3057 3059 3060 3061 3062 3064 3066 3067 3068 3069 3069 3070 3071 3072 3072 3073 3074 3076 3077 3078 3078 3078 3079 3080 3080 3081 3083 3083 3084 3085 3086 3087 3088 3089 3090 3091 3091 3091 3092 3092 3092 3092 3092 3092 3092 3092 3093 3093 3093 3093 3093 3094 3094 3094 3093 3093 3093 3092 3093 3093 3093 3094 3094 3095 3096 3097 3098 3099 3100 3101 3103 3104 3105 3107 3110 3111 3111 3113 3116 3117 3119 3120
3052 3053 3054 3055 3056 3058 3059 3060 3061 3064 3065 3066 3067 3068 3069 3070 3070 3071 3072 3072 3073 3075 3076 3077 3077 3078 3079 3080 3080 3081 3082 3083 3084 3085 3085 3086 3087 3088 3089 3090 3090 3091 3091 3091 3092 3092 3092 3092 3092 3092 3093 3093 3093 3093 3093 3093 3094 3094 3093 3093 3093 3093 3093 3093 3093 3093 3094 3094 3095 3096 3097 3099 3100 3101 3102 3102 3104 3106 3108 3110 3110 3112 3113 3114 3115 3117
3051 3052 3053 3054 3055 3056 3057 3059 3061 3063 3064 3065 3066 3067 3068 3069 3070 3070 3071 3072 3073 3074 3075 3075 3076 3076 3078 3079 3079 3080 3081 3082 3083 3084 3085 3085 3086 3087 3088 3089 3090 3090 3090 3090 3091 3091 3091 3092 3092 3092 3092 3092 3092 3092 3092 3093 3093 3093 3094 3093 3093 3093 3093 3093 3093 3093 3093 3094 3094 3095 3096 3098 3099 3100 3101 3102 3103 3105 3107 3108 3110 3110 3111 3111 3113 3115
3049 3050 3052 3053 3054 3054 3055 3058 3061 3063 3063 3064 3065 3066 3067 3068 3068 3069 3070 3071 3072 3073 3073 3074 3074 3075 3076 3077 3078 3079 3080 3081 3082 3083 3083 3084 3085 3086 3087 3088 3089 3089 3089 3089 3089 3090 3091 3091 3092 3092 3092 3092 3092 3092 3092 3092 3093 3093 3093 3093 3093 3093 3094 3094 3094 3094 3094 3094 3095 3095 3096 3097 3098 3099 3100 3101 3102 3103 3105 3106 3108 3109 3109 3110 3112 3114
3048 3048 3050 3051 3052 3053 3054 3056 3058 3060 3061 3062 3063 3064 3065 3066 3067 3068 3069 3070 3071 3071 3072 3073 3073 3073 3074 3075 3076 3077 3079 3080 3081 3082 3083 3084 3085 3085 3086 3087 3088 3088 3088 3088 3088 3089 3090 3090 3091 3091 3092 3092 3092 3092 3092 3092 3093 3093 3094 3093 3093 3093 3094 3094 3094 3095 3095 3095 3096 3096 3096 3097 3097 3098 3099 3100 3101 3103 3104 3105 3107 3108 3109 3110 3111 3112
3047 3048 3049 3050 3051 3052 3053 3054 3056 3057 3059 3060 3062 3063 3064 3065 3066 3068 3068 3068 3069 3070 3071 3072 3072 3073 3073 3074 3075 3076 3078 3079 3080 3081 3083 3084 3085 3086 3086 3087 3087 3087 3087 3088 3087 3087 3088 3089 3090 3090 3090 3091 3092 3092 3092 3092 3093 3093 3094 3094 3093 3094 3094 3095 3095 3095 3096 3096 3096 3097 3097 3097 3098 3098 3099 3099 3101 3102 3104 3105 3106 3107 3108 3109 3110 3111
3046 3047 3048 3049 3051 3051 3052 3053 3055 3057 3058 3059 3061 3063 3064 3065 3066 3066 3067 3067 3068 3069 3070 3071 3072 3072 3073 3074 3075 3077 3078 3079 3080 3081 3082 3083 3084 3085 3086 3086 3086 3086 3086 3087 3087 3087 3087 3087 3088 3089 3090 3090 3091 3092 3092 3092 3093 3093 3094 3094 3094 3094 3095 3095 3095 3096 3096 3097 3097 3097 3098 3098 3098 3099 3099 3100 3101 3102 3103 3104 3105 3106 3107 3108 3109 3110
3045 3046 3047 3049 3050 3051 3052 3053 3055 3057 3058 3059 3061 3062 3063 3064 3065 3065 3066 3067 3068 3068 3069 3070 3071 3072 3073 3074 3075 3077 3078 3079 3079 3080 3081 3083 3084 3084 3085 3086 3086 3085 3085 3085 3086 3086 3087 3087 3088 3089 3090 3090 3091 3091 3091 3092 3093 3093 3094 3095 3095 3095 3096 3096 3096 3096 3097 3097 3097 3097 3098 3098 3099 3099 3099 3100 3101 3102 3103 3103 3104 3105 3106 3107 3108 3109
3043 3045 3047 3048 3049 3051 3052 3053 3055 3057 3057 3059 3060 3061 3062 3063 3063 3064 3065 3066 3067 3067 3068 3070 3070 3072 3073 3074 3075 3076 3077 3078 3079 3080 3081 3082 3083 3084 3085 3085 3086 3086 3085 3085 3085 3085 3086 3087 3088 3088 3089 3090 3091 3091 3091 3092 3093 3093 3094 3094 3094 3095 3095 3096 3096 3096 3097 3097 3097 3097 3098 3099 3099 3099 3100 3100 3101 3102 3103 3104 3104 3105 3105 3106 3107 3108
3043 3044 3046 3047 3048 3049 3051 3053 3055 3056 3057 3058 3059 3061 3062 3063 3063 3065 3066 3066 3067 3068 3069 3070 3071 3072 3073 3074 3075 3076 3077 3078 3079 3080 3081 3082 3082 3083 3084 3085 3085 3086 3086 3086 3086 3086 3086 3087 3087 3088 3088 3089 3089 3089 3090 3091 3092 3093 3093 3094 3094 3094 3095 3095 3096 3096 3096 3097 3097 3097 3098 3099 3099 3099 3100 3100 3101 3102 3102 3103 3104 3105 3105 3106 3107 3107
3043 3044 3045 3046 3047 3048 3050 3052 3054 3055 3057 3058 3059 3060 3061 3062 3064 3065 3066 3066 3067 3068 3069 3070 3071 3072 3073 3074 3075 3076 3076 3077 3079 3080 3080 3081 3082 3083 3083 3084 3084 3085 3085 3086 3087 3088 3087 3087 3087 3087 3087 3088 3088 3088 3088 3089 3090 3091 3092 3093 3093 3093 3094 3094 3095 3096 3096 3097 3097 3097 3097 3098 3099 3099 3099 3099 3100 3101 3101 3102 3103 3104 3105 3105 3106 3107
3044 3044 3045 3046 3047 3049 3050 3053 3054 3056 3057 3059 3059 3060 3061 3063 3065 3066 3066 3067 3067 3068 3069 3071 3072 3072 3073 3074 3076 3076 3077 3078 3079 3080 3081 3081 3082 3083 3083 3084 3084 3085 3085 3086 3087 3087 3087 3087 3087 3087 3088 3088 3088 3088 3087 3088 3088 3089 3090 3091 3092 3093 3093 3093 3094 3095 3096 3096 3096 3096 3096 3097 3097 3098 3098 3098 3099 3100 3100 3101 3102 3103 3103 3104 3105 3105
3044 3045 3045 3046 3047 3049 3051 3054 3055 3056 3058 3059 3060 3061 3062 3064 3065 3066 3067 3068 3068 3069 3070 3071 3072 3073 3074 3075 3077 3078 3078 3079 3080 3080 3081 3081 3082 3083 3083 3084 3084 3085 3085 3086 3087 3087 3087 3087 3087 3087 3087 3088 3088 3088 3088 3088 3088 3089 3090 3090 3091 3092 3093 3093 3094 3094 3095 3095 3096 3096 3096 3096 3096 3097 3097 3098 3098 3099 3100 3100 3101 3102 3102 3103 3103 3104
3045 3045 3046 3047 3048 3049 3052 3054 3056 3057 3058 3060 3061 3062 3063 3065 3066 3067 3068 3069 3069 3070 3071 3072 3073 3074 3076 3077 3078 3079 3079 3080 3080 3080 3081 3082 3082 3083 3083 3084 3085 3085 3086 3086 3086 3087 3087 3087 3087 3087 3087 3087 3087 3088 3088 3088 3089 3089 3090 3090 3091 3092 3092 3093 3093 3093 3094 3095 3095 3096 3096 3096 3096 3097 3097 3097 3098 3098 3099 3100 3100 3101 3101 3102 3102 3102
3045 3046 3047 3048 3048 3050 3052 3055 3056 3057 3058 3060 3062 3063 3064 3065 3066 3067 3068 3069 3070 3071 3072 3073 3074 3075 3076 3078 3078 3079 3080 3080 3080 3081 3081 3082 3082 3083 3083 3084 3084 3085 3085 3086 3086 3086 3086 3086 3086 3087 3087 3087 3087 3087 3088 3088 3088 3089 3089 3090 3090 3091 3092 3092 3093 3093 3093 3094 3095 3095 3096 3096 3096 3096 3097 3097 3097 3098 3098 3099 3099 3100 3100 3101 3101 3101
3047 3047 3048 3048 3049 3051 3053 3055 3057 3058 3058 3060 3062 3063 3065 3066 3067 3067 3068 3069 3070 3071 3072 3073 3075 3076 3077 3078 3079 3080 3081 3081 3081 3082 3082 3083 3083 3083 3083 3084 3084 3085 3085 3085 3085 3086 3086 3086 3086 3086 3086 3087 3087 3087 3087 3087 3088 3088 3088 3089 3089 3090 3091 3092 3092 3092 3093 3093 3093 3094 3094 3095 3095 3096 3096 3096 3096 3097 3097 3097 3098 3098 3099 3099 3099 3099
3049 3049 3050 3050 3050 3051 3054 3056 3058 3059 3059 3060 3062 3064 3065 3067 3068 3068 3069 3070 3071 3072 3073 3074 3076 3077 3078 3079 3080 3080 3081 3082 3082 3082 3083 3083 3084 3084 3084 3084 3085 3085 3085 3085 3085 3085 3085 3085 3086 3085 3085 3085 3086 3086 3086 3086 3087 3087 3088 3088 3089 3089 3090 3090 3091 3091 3091 3091 3092 3092 3093 3094 3094 3095 3095 3095 3095 3095 3095 3095 3096 3096 3096 3097 3097 3097